Location: Lafig�re
(44.4503°N, 4.0357°E)
Time: 16:05:53
(UTC+00:00)

Cosmos 2082 Rocket - Pass Details

Date: 24 September 2020
Orbit: 834 x 853 km, 71.0° (Epoch: 25 October)

Event Time Altitude Azimuth Distance (km) Brightness Sun altitude
Rises 19:12:56 0° 342° (NNW) 3,392 5.8 -17.7°
Reaches altitude 10° 19:15:55 10° 357° (N) 2,455 4.9 -18.3°
Maximum altitude 19:20:18 23° 49° (NE) 1,725 3.5 -19.0°
Enters shadow 19:21:08 22° 62° (ENE) 1,757 3.5 -19.1°
